FW4291 Weather Reports


Display with metric or nautical units.
time (UTC)temp
F
wind
direction
speed
MPH
gust
MPH
rain 1hr
in
rain 24hr
in
rain mn
in
humidity
%
barometer
mb
20201001225034 67 143 2.0 6.0 0.00 0.21 0.00 63
20201001224027 67 145 3.0 6.0 0.00 0.21 0.00 63 1018.7
20201001223035 67 64 1.0 6.0 0.00 0.21 0.00 63 1018.7
20201001222035 67 112 2.0 6.0 0.00 0.21 0.00 62
20201001221026 67 57 2.0 6.0 0.00 0.21 0.00 62 1018.7
20201001220042 67 22 3.0 6.0 0.00 0.21 0.00 61 1018.7
20201001215031 68 202 1.0 6.0 0.00 0.21 0.21 62
20201001214039 68 157 1.0 6.0 0.00 0.21 0.21 62 1018.7
20201001213039 68 135 2.0 6.0 0.00 0.21 0.21 62 1018.7
20201001212034 69 157 1.0 6.0 0.00 0.21 0.21 61
20201001211035 69 67 3.0 6.0 0.00 0.21 0.21 61 1018.7
20201001210034 69 46 6.0 7.0 0.00 0.21 0.21 60 1018.7
20201001205031 69 34 3.0 6.0 0.00 0.21 0.21 60
20201001204029 69 67 6.0 6.0 0.00 0.21 0.21 59 1018.7
20201001203034 69 22 4.0 6.0 0.00 0.21 0.21 59 1017.6
20201001202034 69 0.0 6.0 0.00 0.21 0.21 59
20201001201034 69 0.0 6.0 0.00 0.21 0.21 59 1017.6
20201001200036 69 0.0 6.0 0.00 0.21 0.21 59 1018.7
20201001195037 69 0.0 6.0 0.00 0.21 0.21 58
20201001194033 69 45 1.0 6.0 0.00 0.21 0.21 58 1017.6
20201001193034 70 0.0 6.0 0.00 0.21 0.21 57 1017.6
20201001192022 70 0.0 6.0 0.00 0.21 0.21 57
20201001191036 70 0.0 6.0 0.00 0.21 0.21 56 1017.6
20201001190033 70 22 0.0 6.0 0.00 0.21 0.21 56 1017.6
20201001185034 70 0.0 6.0 0.00 0.21 0.21 55
20201001184033 70 0.0 6.0 0.00 0.21 0.21 55 1017.6
20201001183031 71 0.0 6.0 0.00 0.21 0.21 54 1017.6
20201001182035 71 0.0 6.0 0.00 0.21 0.21 53
20201001181033 71 0.0 6.0 0.00 0.21 0.21 53 1017.6
20201001180022 71 0.0 6.0 0.00 0.21 0.21 52 1017.6
20201001175036 72 0.0 6.0 0.00 0.21 0.21 52
20201001174036 72 66 1.0 6.0 0.00 0.21 0.21 51 1017.6
20201001173024 72 67 3.0 6.0 0.00 0.21 0.21 50 1017.6
20201001172033 72 46 3.0 6.0 0.00 0.21 0.21 50
20201001171034 73 67 3.0 6.0 0.00 0.21 0.21 50 1016.4
20201001170025 73 43 3.0 6.0 0.00 0.21 0.21 49 1016.4
20201001165033 73 55 2.0 6.0 0.00 0.21 0.21 49
20201001164018 73 45 3.0 6.0 0.00 0.21 0.21 48 1016.4
20201001163021 74 67 4.0 6.0 0.00 0.21 0.21 48 1016.4
20201001162034 74 46 2.0 6.0 0.00 0.21 0.21 47
20201001161021 75 0.0 6.0 0.00 0.21 0.21 47 1015.3
20201001160018 75 45 3.0 6.0 0.00 0.21 0.21 46 1016.4
20201001155033 75 67 1.0 6.0 0.00 0.21 0.21 46
20201001154033 76 0.0 6.0 0.00 0.21 0.21 46 1015.3
20201001153032 76 42 4.0 6.0 0.00 0.21 0.21 45 1016.4
20201001152241 77 40 2.0 6.0 0.00 0.21 0.21 45
20201001151530 77 22 4.0 6.0 0.00 0.21 0.21 45 1015.3
20201001150028 77 3 4.0 6.0 0.00 0.21 0.21 44 1014.1
20201001145034 78 292 1.0 6.0 0.00 0.21 0.21 44
20201001144033 78 3 3.0 6.0 0.00 0.21 0.21 44 1015.3
20201001143032 78 9 4.0 7.0 0.00 0.21 0.21 44 1015.3
20201001142029 79 8 3.0 6.0 0.00 0.21 0.21 44
20201001141036 79 307 1.0 6.0 0.00 0.21 0.21 44 1015.3
20201001140032 79 57 5.0 8.0 0.00 0.21 0.21 44 1015.3
20201001135026 79 4 5.0 9.0 0.00 0.21 0.21 45
20201001134032 78 22 4.0 6.0 0.00 0.21 0.21 45 1014.1
20201001133033 79 25 3.0 6.0 0.00 0.21 0.21 45 1015.3
20201001132033 80 292 3.0 6.0 0.00 0.21 0.21 45
20201001131032 79 2 5.0 6.0 0.00 0.21 0.21 46 1014.1
20201001130035 78 349 4.0 7.0 0.00 0.21 0.21 47 1015.3
20201001125033 80 316 4.0 6.0 0.00 0.21 0.21 46
20201001124033 80 360 3.0 6.0 0.00 0.21 0.21 47 1015.3
20201001123033 79 11 4.0 6.0 0.00 0.21 0.21 49 1015.3
20201001122021 79 22 6.0 6.0 0.00 0.21 0.21 50
20201001121025 78 326 3.0 6.0 0.00 0.21 0.21 51 1015.3
20201001120037 78 17 3.0 6.0 0.00 0.21 0.21 52 1015.3
20201001115032 77 359 4.0 6.0 0.00 0.21 0.21 53
20201001114037 77 25 4.0 8.0 0.00 0.21 0.21 55 1016.4
20201001113035 77 348 5.0 8.0 0.00 0.21 0.21 56 1016.4
20201001112038 76 22 3.0 6.0 0.00 0.21 0.21 57
20201001111033 75 299 3.0 6.0 0.00 0.21 0.21 58 1016.4
20201001110027 75 22 5.0 8.0 0.00 0.21 0.21 60 1016.4
20201001105034 74 22 5.0 6.0 0.00 0.21 0.21 62 1016.4
20201001104033 73 350 5.0 8.0 0.00 0.21 0.21 63 1017.6
20201001103031 73 2 5.0 6.0 0.00 0.21 0.21 64 1017.6
20201001102019 72 204 4.0 6.0 0.00 0.21 0.21 66 1017.6
20201001101031 71 336 5.0 6.0 0.00 0.21 0.21 67 1017.6
20201001100033 70 22 5.0 6.0 0.00 0.21 0.21 68 1017.6
20201001094019 69 1 4.0 6.0 0.00 0.21 0.21 70 1018.7
20201001093031 68 22 6.0 6.0 0.00 0.21 0.21 72 1018.7
20201001092037 67 22 6.0 8.0 0.00 0.21 0.21 72 1018.7
20201001091024 67 358 2.0 6.0 0.00 0.21 0.21 73 1017.6
20201001090031 67 45 1.0 6.0 0.00 0.21 0.21 74 1018.7
20201001085036 66 32 4.0 6.0 0.00 0.21 0.21 74 1018.7
20201001084037 66 54 9.0 11.0 0.00 0.21 0.21 74 1018.7
20201001083032 66 41 4.0 6.0 0.00 0.21 0.21 75 1018.7
20201001082031 66 22 7.0 7.0 0.00 0.21 0.21 76 1018.7
20201001081031 66 53 6.0 10.0 0.00 0.21 0.21 77 1018.7
20201001080033 66 22 4.0 6.0 0.00 0.21 0.21 78 1018.7
20201001075019 65 40 5.0 8.0 0.00 0.21 0.21 78 1018.7
20201001074031 64 12 5.0 6.0 0.00 0.21 0.21 78 1018.7
20201001073020 63 22 5.0 8.0 0.00 0.21 0.21 78 1018.7
20201001072024 63 22 5.0 6.0 0.00 0.21 0.21 78 1018.7
20201001071027 63 30 4.0 6.0 0.00 0.21 0.21 77 1018.7
20201001070035 63 17 4.0 7.0 0.00 0.21 0.21 77 1018.7
20201001065031 63 7 5.0 7.0 0.00 0.21 0.21 77 1018.7
20201001064030 62 22 7.0 8.0 0.00 0.21 0.21 77 1018.7
20201001063023 63 36 4.0 6.0 0.00 0.21 0.21 76 1018.7
20201001062030 62 22 7.0 7.0 0.00 0.21 0.21 76 1018.7
20201001061031 62 32 5.0 9.0 0.00 0.21 0.21 76 1019.9
20201001060035 62 59 5.0 9.0 0.00 0.21 0.21 76 1018.7
20201001055031 62 67 1.0 6.0 0.00 0.21 0.21 76 1018.7
20201001054031 62 40 1.0 6.0 0.00 0.21 0.21 76 1018.7
20201001053033 62 22 2.0 6.0 0.04 0.21 0.21 75 1018.7
20201001052022 62 22 4.0 8.0 0.04 0.21 0.21 75 1018.7
20201001051032 62 67 4.0 6.0 0.17 0.21 0.21 75 1018.7
20201001050033 62 45 0.0 6.0 0.17 0.21 0.21 74 1018.7
20201001045031 61 45 1.0 6.0 0.17 0.21 0.21 74 1018.7
20201001044030 61 0.0 6.0 0.21 0.21 0.21 73 1018.7
20201001043025 62 0.0 6.0 0.17 0.17 0.17 72 1017.6
20201001042030 61 45 1.0 6.0 0.17 0.17 0.17 72 1017.6
20201001041026 61 11 3.0 6.0 0.04 0.04 0.04 71 1017.6
20201001040023 61 35 5.0 6.0 0.04 0.04 0.04 69 1017.6
20201001035030 62 22 6.0 6.0 0.04 0.04 0.04 68 1017.6
20201001034030 61 22 6.0 7.0 0.00 0.00 0.00 67 1017.6
20201001033022 62 31 5.0 6.0 0.00 0.00 0.00 67 1017.6
20201001032031 62 22 7.0 9.0 0.00 0.00 0.00 66 1017.6
20201001031030 62 13 7.0 8.0 0.00 0.00 0.00 66 1017.6
20201001030030 62 1 7.0 9.0 0.00 0.00 0.00 66 1017.6
20201001025040 62 38 5.0 7.0 0.00 0.00 0.00 66 1017.6
20201001024019 62 5 5.0 9.0 0.00 0.00 0.00 65 1017.6
20201001023034 62 22 4.0 6.0 0.00 0.00 0.00 65 1017.6
20201001022033 62 22 2.0 6.0 0.00 0.00 0.00 65 1017.6
20201001021029 62 57 6.0 8.0 0.00 0.00 0.00 64 1017.6
20201001020030 62 22 5.0 7.0 0.00 0.00 0.00 64 1017.6
20201001015030 63 35 4.0 7.0 0.00 0.00 0.00 63 1017.6
20201001014020 63 22 4.0 10.0 0.00 0.00 0.00 63 1017.6
20201001013029 63 22 4.0 4.0 0.00 0.00 0.00 63 1017.6
20201001012024 63 44 4.0 6.0 0.00 0.00 0.00 63 1017.6
20201001011029 63 22 4.0 6.0 0.00 0.00 0.00 62 1017.6
20201001010038 62 49 6.0 7.0 0.00 0.00 0.00 62 1017.6
20201001005028 63 32 6.0 8.0 0.00 0.00 0.00 61 1017.6
20201001004024 63 22 6.0 9.0 0.00 0.00 0.00 60
20201001003037 63 22 6.0 9.0 0.00 0.00 0.00 60 1017.6
20201001002029 63 32 4.0 6.0 0.00 0.00 0.00 60 1018.7
20201001001029 63 33 6.0 8.0 0.00 0.00 0.00 59
20201001000035 63 22 4.0 6.0 0.00 0.00 0.00 59 1017.6
20200930235029 63 22 6.0 6.0 0.00 0.00 0.00 58 1018.7
20200930234033 63 4 5.0 6.0 0.00 0.00 0.00 58
20200930233038 63 67 5.0 6.0 0.00 0.00 0.00 57 1017.6
20200930232029 63 337 5.0 10.0 0.00 0.00 0.00 56 1018.7
20200930231029 63 70 5.0 10.0 0.00 0.00 0.00 56
20200930230048 63 45 6.0 10.0 0.00 0.00 0.00 55 1018.7